Weather History for KMAN - October, 2012

Change the Weather History Date:

Monday, October 15, 2012

  Actual Average (KBOI) Record (KBOI)
Temperature  
Mean Temperature 61 °F 53 °F  
Max Temperature 71 °F 66 °F 87 °F (1991)
Min Temperature 51 °F 41 °F 21 °F (1992)
Degree Days  
Heating Degree Days 4 12  
Month to date heating degree days 141  
Since 1 July heating degree days 262  
Cooling Degree Days 0 0  
Month to date cooling degree days 7  
Year to date cooling degree days 941  
Growing Degree Days 11 (Base 50)    
Moisture  
Dew Point 44 °F    
Average Humidity 56    
Maximum Humidity 94    
Minimum Humidity 38    
Precipitation  
Precipitation 0.01 in 0.02 in 0.82 in (1918)
Month to date precipitation 0.31  
Year to date precipitation 8.39  
Snow  
Snow 0.00 in 0.00 in 0.00 in (2006)
Month to date snowfall 0.0  
Since 1 July snowfall 0.0  
Snow Depth -    
Sea Level Pressure  
Sea Level Pressure 30.01 in    
Wind  
Wind Speed 4 mph (ESE)    
Max Wind Speed 8 mph    
Max Gust Speed -    
Visibility 10 miles    
Events      
T = Trace of Precipitation, MM = Missing Value Source: NWS Daily Summary

Daily Weather History Graph

Daily Weather History Graph

Search for Another Location

Airport or City:

Trip Planner

Search our weather history database for the weather conditions in past years. The results will help you decide how hot, cold, wet, or windy it might be!

Date:

Astronomy

Oct. 15, 2012 Rise Set
Actual Time 8:00 AM MDT 7:01 PM MDT
Civil Twilight 7:32 AM MDT 7:30 PM MDT
Nautical Twilight 6:58 AM MDT 8:03 PM MDT
Astronomical Twilight 6:25 AM MDT 8:36 PM MDT
Moon 8:18 AM MDT (10/15) 7:01 PM MDT (10/15)
Length of Visible Light 11h 58m
Length of Day
11h 00m
New Moon, 0% of the Moon is Illuminated
Oct 15
New Moon
Oct 21
First Quarter
Oct 29
Full
Nov 6
Last Quarter
Nov 13
New

Hourly Weather History & Observations

Time (MDT) Temp. Dew Point Humidity Pressure Visibility Wind Dir Wind Speed Gust Speed Precip Events Conditions
12:15 AM 59.0 °F 35.6 °F 42% 30.00 in 10.0 mi SE 6.9 mph - N/A   Clear
12:35 AM 57.2 °F 37.4 °F 48% 30.00 in 10.0 mi SSE 4.6 mph - N/A   Clear
12:55 AM 59.0 °F 35.6 °F 42% 29.99 in 10.0 mi SE 8.1 mph - N/A   Clear
1:15 AM 59.0 °F 37.4 °F 45% 29.99 in 10.0 mi SSE 5.8 mph - N/A   Clear
1:35 AM 59.0 °F 37.4 °F 45% 29.99 in 10.0 mi SSE 3.5 mph - N/A   Clear
1:55 AM 59.0 °F 37.4 °F 45% 29.99 in 10.0 mi SE 4.6 mph - N/A   Clear
2:15 AM 59.0 °F 37.4 °F 45% 29.99 in 10.0 mi Calm Calm - N/A   Clear
2:35 AM 57.2 °F 37.4 °F 48% 29.99 in 10.0 mi SE 4.6 mph - N/A   Partly Cloudy
2:55 AM 57.2 °F 37.4 °F 48% 29.99 in 10.0 mi SSE 4.6 mph - N/A   Partly Cloudy
3:15 AM 57.2 °F 37.4 °F 48% 30.00 in 10.0 mi Calm Calm - N/A   Clear
3:55 AM 57.2 °F 37.4 °F 48% 30.01 in 10.0 mi Calm Calm - N/A   Mostly Cloudy
4:15 AM 57.2 °F 37.4 °F 48% 30.01 in 10.0 mi Calm Calm - N/A   Mostly Cloudy
4:35 AM 57.2 °F 37.4 °F 48% 30.01 in 10.0 mi Calm Calm - N/A   Scattered Clouds
4:55 AM 55.4 °F 39.2 °F 54% 30.01 in 10.0 mi Calm Calm - N/A   Partly Cloudy
5:15 AM 53.6 °F 39.2 °F 58% 30.01 in 10.0 mi Calm Calm - N/A   Mostly Cloudy
5:35 AM 57.2 °F 39.2 °F 51% 30.02 in 10.0 mi NNE 6.9 mph - N/A   Overcast
6:35 AM 55.4 °F 44.6 °F 67% 30.06 in 9.0 mi North 3.5 mph - N/A   Overcast
6:55 AM 55.4 °F 46.4 °F 72% 30.06 in 10.0 mi NNW 3.5 mph - N/A   Overcast
7:15 AM 55.4 °F 46.4 °F 72% 30.07 in 8.0 mi NNW 3.5 mph - N/A   Overcast
7:35 AM 53.6 °F 48.2 °F 82% 30.07 in 10.0 mi Calm Calm - N/A   Overcast
7:55 AM 53.6 °F 50.0 °F 88% 30.07 in 9.0 mi ESE 3.5 mph - N/A   Overcast
8:15 AM 51.8 °F 50.0 °F 94% 30.07 in 3.0 mi ESE 3.5 mph - N/A   Mostly Cloudy
8:35 AM 51.8 °F 50.0 °F 94% 30.07 in 10.0 mi Calm Calm - N/A   Mostly Cloudy
8:55 AM 51.8 °F 50.0 °F 94% 30.08 in 10.0 mi East 3.5 mph - N/A   Scattered Clouds
9:15 AM 51.8 °F 50.0 °F 94% 30.09 in 10.0 mi SE 3.5 mph - N/A   Mostly Cloudy
9:35 AM 53.6 °F 50.0 °F 88% 30.10 in 10.0 mi Calm Calm - N/A   Overcast
9:55 AM 53.6 °F 50.0 °F 88% 30.10 in 10.0 mi Calm Calm - N/A   Overcast
10:35 AM 59.0 °F 50.0 °F 72% 30.10 in 10.0 mi ESE 4.6 mph - N/A   Scattered Clouds
10:55 AM 62.6 °F 50.0 °F 63% 30.10 in 10.0 mi Calm Calm - N/A   Partly Cloudy
11:15 AM 64.4 °F 48.2 °F 56% 30.11 in 10.0 mi SE 3.5 mph - N/A   Scattered Clouds
11:35 AM 66.2 °F 48.2 °F 52% 30.11 in 10.0 mi SSW 4.6 mph - N/A   Mostly Cloudy
11:55 AM 64.4 °F 48.2 °F 56% 30.10 in 10.0 mi Calm Calm - N/A   Overcast
12:15 PM 64.4 °F 46.4 °F 52% 30.09 in 10.0 mi NNW 3.5 mph - N/A   Overcast
12:35 PM 66.2 °F 46.4 °F 49% 30.09 in 10.0 mi Calm Calm - N/A   Overcast
12:55 PM 66.2 °F 46.4 °F 49% 30.08 in 10.0 mi SSE 3.5 mph - N/A   Mostly Cloudy
1:15 PM 68.0 °F 44.6 °F 43% 30.08 in 10.0 mi Calm Calm - N/A   Scattered Clouds
1:35 PM 68.0 °F 44.6 °F 43% 30.06 in 10.0 mi North 4.6 mph - N/A   Mostly Cloudy
1:55 PM 68.0 °F 44.6 °F 43% 30.05 in 10.0 mi NNW 3.5 mph - N/A   Scattered Clouds
2:15 PM 68.0 °F 44.6 °F 43% 30.05 in 10.0 mi ENE 4.6 mph - N/A   Mostly Cloudy
2:35 PM 69.8 °F 44.6 °F 40% 30.03 in 10.0 mi ENE 5.8 mph - N/A   Scattered Clouds
2:55 PM 69.8 °F 44.6 °F 40% 30.02 in 8.0 mi NNE 6.9 mph - N/A   Scattered Clouds
3:15 PM 68.0 °F 44.6 °F 43% 30.02 in 7.0 mi ENE 5.8 mph - N/A   Scattered Clouds
3:35 PM 68.0 °F 44.6 °F 43% 30.01 in 10.0 mi ENE 4.6 mph - N/A   Partly Cloudy
3:55 PM 71.6 °F 44.6 °F 38% 30.00 in 10.0 mi NE 4.6 mph - N/A   Partly Cloudy
4:15 PM 71.6 °F 44.6 °F 38% 29.99 in 10.0 mi North 5.8 mph - N/A   Partly Cloudy
4:35 PM 71.6 °F 44.6 °F 38% 29.98 in 10.0 mi NE 3.5 mph - N/A   Partly Cloudy
5:15 PM 71.6 °F 44.6 °F 38% 29.96 in 10.0 mi ENE 5.8 mph - N/A   Clear
5:35 PM 71.6 °F 44.6 °F 38% 29.96 in 10.0 mi ESE 4.6 mph - N/A   Clear
5:55 PM 71.6 °F 44.6 °F 38% 29.96 in 10.0 mi Calm Calm - N/A   Clear
6:15 PM 69.8 °F 44.6 °F 40% 29.96 in 10.0 mi Calm Calm - N/A   Clear
6:35 PM 68.0 °F 44.6 °F 43% 29.96 in 10.0 mi Calm Calm - N/A   Clear
6:55 PM 64.4 °F 46.4 °F 52% 29.95 in 10.0 mi Calm Calm - N/A   Clear
7:15 PM 62.6 °F 48.2 °F 59% 29.94 in 10.0 mi SE 3.5 mph - N/A   Clear
7:35 PM 62.6 °F 46.4 °F 55% 29.93 in 10.0 mi ESE 3.5 mph - N/A   Clear
7:55 PM 62.6 °F 46.4 °F 55% 29.93 in 10.0 mi Calm Calm - N/A   Clear
8:15 PM 62.6 °F 46.4 °F 55% 29.92 in 10.0 mi ESE 4.6 mph - N/A   Scattered Clouds
8:35 PM 62.6 °F 46.4 °F 55% 29.92 in 10.0 mi ESE 3.5 mph - N/A   Overcast
8:55 PM 60.8 °F 46.4 °F 59% 29.92 in 10.0 mi SSE 3.5 mph - N/A   Overcast
9:15 PM 60.8 °F 46.4 °F 59% 29.92 in 6.0 mi SE 3.5 mph - N/A   Overcast
9:35 PM 59.0 °F 46.4 °F 63% 29.91 in 2.5 mi SE 5.8 mph - N/A   Mostly Cloudy
9:55 PM 60.8 °F 46.4 °F 59% 29.91 in 9.0 mi SE 6.9 mph - N/A   Mostly Cloudy
10:15 PM 62.6 °F 44.6 °F 52% 29.91 in 10.0 mi SE 6.9 mph - N/A   Overcast
10:35 PM 60.8 °F 44.6 °F 55% 29.90 in 10.0 mi SE 6.9 mph - N/A   Overcast
10:55 PM 60.8 °F 44.6 °F 55% 29.91 in 10.0 mi South 6.9 mph - N/A   Overcast
11:15 PM 59.0 °F 46.4 °F 63% 29.91 in 10.0 mi SSE 6.9 mph - N/A   Overcast
11:35 PM 59.0 °F 48.2 °F 67% 29.93 in 9.0 mi South 3.5 mph - N/A   Overcast
11:55 PM 59.0 °F 50.0 °F 72% 29.96 in 5.0 mi WSW 8.1 mph - 0.01 in   Overcast